This is the latest recevied weather packets stored in our database for station/object W7TTE. If no packets are shown the sender has not sent any weather packets the latest 10 day(s).
| Time | Temp. | Humidity | Pressure | Rain* | Wind** | Luminosity | Snow |
|---|---|---|---|---|---|---|---|
| 1778056517 | 16.11° C | 42% | 1015.7 hPa | 0 mm | - | 0 W/m² | - |
| 1778056215 | 16.11° C | 43% | 1015.7 hPa | 0 mm | - | 0 W/m² | - |
| 1778055912 | 16.11° C | 44% | 1015.9 hPa | 0 mm | - | 0 W/m² | - |
| 1778055607 | 16.11° C | 44% | 1015.8 hPa | 0 mm | - | 0 W/m² | - |
| 1778055306 | 16.67° C | 43% | 1015.7 hPa | 0 mm | - | 0 W/m² | - |
| 1778055003 | 16.11° C | 44% | 1015.9 hPa | 0 mm | - | 0 W/m² | - |
| 1778054700 | 16.11° C | 44% | 1015.8 hPa | 0 mm | - | 0 W/m² | - |
| 1778054397 | 16.67° C | 42% | 1015.8 hPa | 0 mm | - | 0 W/m² | - |
| 1778054095 | 16.67° C | 41% | 1015.9 hPa | 0 mm | - | 0 W/m² | - |
| 1778053791 | 16.67° C | 41% | 1015.8 hPa | 0 mm | - | 0 W/m² | - |
| 1778053488 | 16.67° C | 41% | 1015.8 hPa | 0 mm | - | 0 W/m² | - |
| 1778053185 | 17.22° C | 41% | 1015.9 hPa | 0 mm | - | 0 W/m² | - |
| 1778052884 | 16.67° C | 41% | 1015.7 hPa | 0 mm | - | 0 W/m² | - |
| 1778052581 | 16.67° C | 41% | 1015.8 hPa | 0 mm | - | 0 W/m² | - |
| 1778052278 | 17.22° C | 41% | 1016 hPa | 0 mm | - | 0 W/m² | - |
| 1778051976 | 17.22° C | 41% | 1015.7 hPa | 0 mm | - | 0 W/m² | - |
| 1778051673 | 17.22° C | 40% | 1015.7 hPa | 0 mm | - | 0 W/m² | - |
| 1778051370 | 17.22° C | 42% | 1015.7 hPa | 0 mm | - | 0 W/m² | - |
| 1778051067 | 17.22° C | 39% | 1015.8 hPa | 0 mm | - | 0 W/m² | - |
| 1778050764 | 16.67° C | 40% | 1015.5 hPa | 0 mm | - | 0 W/m² | - |
| 1778050462 | 16.67° C | 41% | 1015.7 hPa | 0 mm | - | 0 W/m² | - |
| 1778050158 | 16.67° C | 41% | 1015.6 hPa | 0 mm | - | 0 W/m² | - |
| 1778049854 | 17.22° C | 40% | 1015.6 hPa | 0 mm | - | 0 W/m² | - |
| 1778049551 | 17.78° C | 38% | 1015.3 hPa | 0 mm | - | 0 W/m² | - |
| 1778049249 | 17.78° C | 38% | 1015.4 hPa | 0 mm | - | 0 W/m² | - |
* Rain latest hour (hover to see other rain measurements)
** Current wind speed in m/s (hover to see current wind gust speed)